This demonstration page uses our WeatherBlox Daily Observations layout. Learn more.

Left ArrowRight Arrow

Hourly Observations for May 16, 2017

Temp ( °F °C ) Dew Point ( °F °C ) Humidity (%) Winds ( mph kmh ) Pressure ( in mb ) Visibility ( mi km ) Precip ( " mm )
12:56 am 00:56 Partly Cloudy 78 25.8 66 18.9 66 66 S 10 17 29.68 1005 10 16 0.00 0.00
1:43 am 01:43 Partly Cloudy 79 26 64 18 61 61 SW 13 20 29.69 1005 10 16 0.00 0.00
1:56 am 01:56 Mostly Clear 78 25.3 60 15.6 55 55 W 9 15 29.70 1006 10 16 0.00 0.00
2:56 am 02:56 Mostly Cloudy 74 23.5 56 13.4 53 53 WSW 7 11 29.69 1005 10 16 0.00 0.00
3:56 am 03:56 Clear 69 20.5 57 13.9 66 66 SE 8 13 29.64 1004 10 16 0.00 0.00
4:56 am 04:56 Partly Cloudy 70 20.9 57 14.1 65 65 SE 6 9 29.63 1003 10 16 0.00 0.00
5:56 am 05:56 Clear 71 21.6 64 18 80 80 SE 13 20 29.59 1002 10 16 0.00 0.00
6:56 am 06:56 Sunny 72 22.1 62 16.8 72 72 SE 16 26 29.59 1002 10 16 0.00 0.00
7:22 am 07:22 Mostly Sunny 72 22 63 17 73 73 SE 16 26 29.59 1002 10 16 0.00 0.00
7:56 am 07:56 Sunny 71 21.6 62 16.5 73 73 SSE 13 20 29.58 1002 10 16 0.00 0.03
8:56 am 08:56 Sunny 75 24 62 16.5 63 63 SSE 17 28 29.57 1001 10 16 0.00 0.00
9:56 am 09:56 Sunny 78 25.6 62 16.7 58 58 S 16 26 29.57 1001 10 16 0.00 0.00
10:56 am 10:56 Sunny 82 27.6 63 17.1 53 53 S 13 20 29.55 1001 10 16 0.00 0.00
11:56 am 11:56 Sunny 83 28.6 62 16.5 48 48 S 15 24 29.54 1000 10 16 0.00 0.00
12:56 pm 12:56 Sunny 84 29 61 16.2 46 46 SSW 15 24 29.53 1000 10 16 0.00 0.00
1:56 pm 13:56 Sunny 87 30.4 63 17.1 45 45 S 16 26 29.52 1000 10 16 0.00 0.00
2:01 pm 14:01 Sunny 88 31 63 17 43 43 SSW 16 26 29.52 1000 10 16 0.00 0.00
2:14 pm 14:14 Mostly Sunny 88 31 63 17 43 43 S 17 28 29.52 1000 10 16 0.00 0.00
2:17 pm 14:17 Mostly Sunny 88 31 63 17 43 43 SW 15 24 29.52 1000 10 16 0.00 0.00
2:56 pm 14:56 Sunny 89 31.5 61 16.2 40 40 SSW 13 20 29.52 1000 10 16 0.00 0.00
3:56 pm 15:56 Sunny 90 32.4 63 17 40 40 S 10 17 29.50 999 10 16 0.00 0.00
4:56 pm 16:56 Sunny 89 31.7 63 17.2 42 42 S 15 24 29.47 998 10 16 0.00 0.00
5:56 pm 17:56 Mostly Sunny 86 30.2 64 17.6 47 47 S 12 19 29.46 998 10 16 0.00 0.00
6:35 pm 18:35 Partly Cloudy with Thunderstorms 86 30 64 18 49 49 SSW 14 22 29.44 997 10 16 0.00 0.00
6:42 pm 18:42 Windy with Storms Likely 84 29 61 16 45 45 W 33 54 29.53 1000 9 14 0.00 0.00
6:46 pm 18:46 Windy with Storms Likely 77 25 61 16 57 57 W 37 59 29.52 1000 6 10 0.00 0.00
6:56 pm 18:56 Windy with Storms Likely 65 18.6 58 14.7 78 78 WNW 23 37 29.50 999 8 13 0.00 0.03
7:01 pm 19:01 Partly Cloudy with Strong Thunderstorms 64 18 59 15 83 83 W 18 30 29.52 1000 5 8 0.00 0.00
7:06 pm 19:06 Partly Cloudy with Strong Thunderstorms 64 18 59 15 83 83 W 24 39 29.50 999 2 2 0.00 0.00
7:11 pm 19:11 Mostly Cloudy with Strong Thunderstorms 63 17 59 15 88 88 WNW 24 39 29.48 998 3 5 0.00 0.00
7:14 pm 19:14 Mostly Cloudy with Strong Thunderstorms 63 17 59 15 88 88 WNW 21 33 29.49 999 1 2 0.00 0.00
7:24 pm 19:24 Mostly Cloudy with Strong Thunderstorms 63 17 59 15 88 88 WNW 13 20 29.49 999 4 6 0.00 0.00
7:31 pm 19:31 Mostly Cloudy with Strong Thunderstorms 63 17 59 15 88 88 S 10 17 29.58 1002 2 3 0.00 0.00
7:38 pm 19:38 Mostly Cloudy with Strong Thunderstorms 63 17 59 15 88 88 E 13 20 29.57 1001 5 8 0.00 0.00
7:41 pm 19:41 Mostly Cloudy with Strong Thunderstorms 61 16 59 15 94 94 ENE 13 20 29.56 1001 5 8 0.00 0.00
7:50 pm 19:50 Mostly Cloudy with Thunderstorms 61 16 59 15 94 94 NE 13 20 29.52 1000 5 8 0.00 0.00
7:56 pm 19:56 Mostly Cloudy with Thunderstorms 61 16.3 58 14.6 90 90 NNE 13 20 29.49 999 8 13 0.70 17.78
8:06 pm 20:06 Mostly Cloudy with Strong Thunderstorms 63 17 59 15 88 88 SW 8 13 29.56 1001 2 3 0.00 0.00
8:11 pm 20:11 Mostly Cloudy with Strong Thunderstorms 63 17 59 15 88 88 N 12 19 29.56 1001 2 4 0.00 0.00
8:17 pm 20:17 Mostly Cloudy with Strong Thunderstorms 63 17 59 15 88 88 E 3 6 29.57 1002 3 4 0.00 0.00
8:22 pm 20:22 Cloudy with Strong Thunderstorms 63 17 59 15 88 88 SSW 3 6 29.57 1002 3 5 0.00 0.00
8:32 pm 20:32 Cloudy with Strong Thunderstorms 63 17 59 15 88 88 E 5 7 29.54 1001 3 4 0.00 0.00
8:35 pm 20:35 Mostly Cloudy with Strong Thunderstorms 63 17 59 15 88 88 E 8 13 29.54 1001 4 6 0.00 0.00
8:56 pm 20:56 Mostly Cloudy with Thunderstorms 62 16.5 60 15.5 94 94 E 9 15 29.52 1000 10 16 0.50 12.70
9:34 pm 21:34 Partly Cloudy with Strong Thunderstorms 63 17 61 16 94 94 SW 28 44 29.67 1005 1 2 0.00 0.00
9:56 pm 21:56 Mostly Cloudy with Strong Thunderstorms 61 16.2 59 15.2 94 94 Calm 29.62 1003 2 4 0.66 16.76
10:00 pm 22:00 Mostly Cloudy with Strong Thunderstorms 61 16 59 15 94 94 Calm 29.62 1003 4 6 0.00 0.00
10:08 pm 22:08 Mostly Clear with Rain and Nearby Thunderstorms 61 16 59 15 94 94 Calm 29.63 1004 6 10 0.00 0.00
10:11 pm 22:11 Mostly Cloudy with Thunderstorms 61 16 59 15 94 94 Calm 29.63 1004 7 11 0.00 0.00
10:26 pm 22:26 Partly Cloudy with Rain and Scattered Storms 61 16 59 15 94 94 ENE 6 9 29.62 1003 6 10 0.00 0.00
10:28 pm 22:28 Partly Cloudy with Thunderstorms 61 16 61 16 100 100 ENE 7 11 29.61 1003 6 10 0.00 0.00
10:43 pm 22:43 Mostly Clear with Rain and Nearby Thunderstorms 61 16 59 15 94 94 NE 8 13 29.60 1002 9 14 0.00 0.00
10:56 pm 22:56 Mostly Clear with Light Rain and Nearby Thunderstorms 61 16.1 60 15.3 95 95 NNE 10 17 29.57 1001 10 16 0.10 2.54
10:57 pm 22:57 Mostly Cloudy with Thunderstorms 61 16 59 15 94 94 NE 8 13 29.56 1001 10 16 0.00 0.00
11:41 pm 23:41 Cloudy with Thunderstorms 61 16 61 16 100 100 SE 8 13 29.60 1002 10 16 0.00 0.00
11:56 pm 23:56 Cloudy with Thunderstorms 62 16.5 60 15.5 94 94 SE 7 11 29.60 1002 5 8 0.07 1.78

Powered by AerisWeather